NI4CE-10 Weather Reports


time (UTC)temp
C
wind
direction
speed
KPH
gust
KPH
rain 1hr
cm
rain 24hr
cm
rain mn
cm
humidity
%
barometer
mb
20260904212242 34 236 4.8 14.5 0.00 0.00 0.00 100 1015.6
20260904212104 35 244 4.8 16.1 0.00 0.00 0.00 100 1015.5
20260904212032 35 244 4.8 16.1 0.00 0.00 0.00 100 1015.5
20260904211742 35 244 4.8 16.1 0.00 0.00 0.00 100 1015.5
20260904211242 34 243 12.9 17.7 0.00 0.00 0.00 100 1015.4
20260904210946 34 265 12.9 22.5 0.00 0.00 0.00 100 1015.3
20260904210742 34 265 12.9 22.5 0.00 0.00 0.00 100 1015.3
20260904210553 34 289 8.0 14.5 0.00 0.00 0.00 100 1015.2
20260904210243 34 289 8.0 14.5 0.00 0.00 0.00 100 1015.2
20260904210004 33 277 4.8 19.3 0.00 0.00 0.00 100 1015.2
20260904205742 33 277 4.8 19.3 0.00 0.00 0.00 100 1015.2
20260904205242 33 246 6.4 22.5 0.00 0.00 0.00 100 1015.2
20260904205037 33 272 12.9 16.1 0.00 0.00 0.00 100 1015.2
20260904204742 33 272 12.9 16.1 0.00 0.00 0.00 100 1015.2
20260904204242 33 286 11.3 19.3 0.00 0.00 0.00 100 1015.3
20260904203742 34 265 11.3 14.5 0.00 0.00 0.00 100 1015.4
20260904203443 33 254 14.5 14.5 0.00 0.00 0.00 100 1015.4
20260904203242 33 254 14.5 14.5 0.00 0.00 0.00 100 1015.4
20260904202742 33 237 8.0 16.1 0.00 0.00 0.00 100 1015.6
20260904202244 34 292 1.6 12.9 0.00 0.00 0.00 100 1015.7
20260904202008 35 240 8.0 20.9 0.00 0.00 0.00 100 1015.8
20260904201742 35 240 8.0 20.9 0.00 0.00 0.00 100 1015.8
20260904201242 35 253 14.5 17.7 0.00 0.00 0.00 100 1015.8
20260904200742 35 233 8.0 12.9 0.00 0.00 0.00 100 1015.7
20260904200244 35 237 8.0 19.3 0.00 0.00 0.00 100 1015.8
20260904200114 35 255 12.9 12.9 0.00 0.00 0.00 100 1015.7
20260904195742 35 255 12.9 12.9 0.00 0.00 0.00 100 1015.7
20260904195537 34 270 9.7 16.1 0.00 0.00 0.00 100 1015.8
20260904195242 34 270 9.7 16.1 0.00 0.00 0.00 100 1015.8
20260904194742 34 272 12.9 14.5 0.00 0.00 0.00 100 1015.8
20260904194242 35 260 4.8 16.1 0.00 0.00 0.00 100 1015.7
20260904193743 35 253 6.4 16.1 0.00 0.00 0.00 100 1016.0
20260904193243 35 243 8.0 14.5 0.00 0.00 0.00 100 1016.0
20260904192743 35 227 9.7 17.7 0.00 0.00 0.00 100 1016.0
20260904192447 36 241 6.4 14.5 0.00 0.00 0.00 100 1016.1
20260904192243 36 241 6.4 14.5 0.00 0.00 0.00 100 1016.1
20260904191911 36 250 11.3 14.5 0.00 0.00 0.00 100 1016.3
20260904191743 36 250 11.3 14.5 0.00 0.00 0.00 100 1016.3
20260904191243 36 279 9.7 14.5 0.00 0.00 0.00 100 1016.4
20260904190743 36 246 9.7 17.7 0.00 0.00 0.00 100 1016.4
20260904190533 36 243 12.9 20.9 0.00 0.03 0.00 100 1016.4
20260904190243 36 243 12.9 20.9 0.00 0.03 0.00 100 1016.4
20260904185943 37 241 6.4 20.9 0.00 0.03 0.00 100 1016.4
20260904185743 37 241 6.4 20.9 0.00 0.03 0.00 100 1016.4
20260904185243 37 215 12.9 20.9 0.00 0.03 0.00 100 1016.5
20260904184953 37 260 11.3 17.7 0.00 0.03 0.00 100 1016.6
20260904184743 37 260 11.3 17.7 0.00 0.03 0.00 100 1016.6
20260904184613 36 229 9.7 25.7 0.00 0.03 0.00 100 1016.6
20260904184243 36 229 9.7 25.7 0.00 0.03 0.00 100 1016.6
20260904183909 36 161 6.4 16.1 0.00 0.03 0.00 100 1016.6
20260904183743 36 161 6.4 16.1 0.00 0.03 0.00 100 1016.6
20260904183501 36 236 4.8 14.5 0.00 0.03 0.00 100 1016.6
20260904183243 36 236 4.8 14.5 0.00 0.03 0.00 100 1016.6
20260904182942 37 217 8.0 17.7 0.00 0.03 0.00 100 1016.6
20260904182743 37 217 8.0 17.7 0.00 0.03 0.00 100 1016.6
20260904182442 37 264 14.5 16.1 0.00 0.03 0.00 100 1016.6
20260904182243 37 264 14.5 16.1 0.00 0.03 0.00 100 1016.6
20260904181946 39 241 4.8 11.3 0.00 0.03 0.00 100 1016.7
20260904181743 39 241 4.8 11.3 0.00 0.03 0.00 100 1016.7
20260904181243 39 223 9.7 11.3 0.00 0.03 0.00 100 1016.7
20260904180944 38 227 8.0 17.7 0.00 0.03 0.00 100 1016.9
20260904180743 38 227 8.0 17.7 0.00 0.03 0.00 100 1016.9
20260904180549 38 239 9.7 16.1 0.00 0.15 0.00 100 1017.0
20260904180517 38 239 9.7 16.1 0.00 0.15 0.00 100 1017.0
20260904180244 38 239 9.7 16.1 0.00 0.15 0.00 100 1017.0
20260904180032 40 208 11.3 20.9 0.00 0.15 0.00 100 1017.1
20260904175743 40 208 11.3 20.9 0.00 0.15 0.00 100 1017.1
20260904175243 42 236 17.7 20.9 0.00 0.15 0.00 100 1017.1
20260904174743 40 240 8.0 17.7 0.00 0.15 0.00 100 1017.0
20260904174603 40 271 9.7 16.1 0.00 0.15 0.00 100 1017.0
20260904174243 40 271 9.7 16.1 0.00 0.15 0.00 100 1017.0
20260904174117 42 258 6.4 16.1 0.00 0.15 0.00 100 1017.1
20260904173743 42 258 6.4 16.1 0.00 0.15 0.00 100 1017.1
20260904173243 49 222 11.3 16.1 0.00 0.15 0.00 100 1017.1
20260904173119 43 307 3.2 17.7 0.00 0.15 0.00 100 1017.1
20260904172743 43 307 3.2 17.7 0.00 0.15 0.00 100 1017.1
20260904172652 41 216 6.4 19.3 0.00 0.15 0.00 100 1017.1
20260904172243 41 216 6.4 19.3 0.00 0.15 0.00 100 1017.1
20260904172152 46 233 17.7 22.5 0.00 0.15 0.00 100 1017.2
20260904171743 46 233 17.7 22.5 0.00 0.15 0.00 100 1017.2
20260904171243 50 222 11.3 20.9 0.00 0.15 0.00 100 1017.3
20260904171152 51 251 14.5 17.7 0.00 0.15 0.00 100 1017.3
20260904170743 51 251 14.5 17.7 0.00 0.15 0.00 100 1017.3
20260904170616 48 206 9.7 14.5 0.00 0.15 0.00 100 1017.4
20260904170243 48 206 9.7 14.5 0.00 0.15 0.00 100 1017.4
20260904165743 47 244 6.4 17.7 0.00 0.15 0.00 100 1017.4
20260904165600 50 234 4.8 16.1 0.00 0.15 0.00 100 1017.4
20260904165243 50 234 4.8 16.1 0.00 0.15 0.00 100 1017.4
20260904165022 48 227 6.4 17.7 0.00 0.15 0.00 100 1017.4
20260904164743 48 227 6.4 17.7 0.00 0.15 0.00 100 1017.4
20260904164359 45 213 16.1 16.1 0.00 0.15 0.00 100 1017.4
20260904164243 45 213 16.1 16.1 0.00 0.15 0.00 100 1017.4
20260904163743 48 223 14.5 17.7 0.00 0.15 0.00 100 1017.5
20260904163717 42 196 11.3 14.5 0.00 0.15 0.00 100 1017.6
20260904163243 42 196 11.3 14.5 0.00 0.15 0.00 100 1017.6
20260904163031 47 227 9.7 14.5 0.00 0.15 0.00 100 1017.7
20260904162743 47 227 9.7 14.5 0.00 0.15 0.00 100 1017.7
20260904162537 47 151 6.4 17.7 0.00 0.15 0.00 100 1017.8
20260904162243 47 151 6.4 17.7 0.00 0.15 0.00 100 1017.8
20260904161743 47 232 12.9 24.1 0.00 0.15 0.00 100 1017.8
20260904161613 46 219 4.8 20.9 0.00 0.15 0.00 100 1017.8
20260904161243 46 219 4.8 20.9 0.00 0.15 0.00 100 1017.8
20260904160743 46 195 11.3 14.5 0.00 0.15 0.00 100 1017.8
20260904160243 43 195 8.0 16.1 0.00 0.15 0.00 100 1017.9
20260904160116 44 243 11.3 17.7 0.00 0.15 0.00 100 1017.8
20260904155743 44 243 11.3 17.7 0.00 0.15 0.00 100 1017.8
20260904155602 46 248 11.3 17.7 0.00 0.15 0.00 100 1017.9
20260904155243 46 248 11.3 17.7 0.00 0.15 0.00 100 1017.9
20260904155058 44 192 8.0 19.3 0.00 0.15 0.00 100 1017.9
20260904154743 44 192 8.0 19.3 0.00 0.15 0.00 100 1017.9
20260904154627 40 215 12.9 17.7 0.00 0.15 0.00 100 1017.9
20260904154244 40 215 12.9 17.7 0.00 0.15 0.00 100 1017.9
20260904154031 38 208 12.9 20.9 0.00 0.15 0.00 100 1017.9
20260904153744 38 208 12.9 20.9 0.00 0.15 0.00 100 1017.9
20260904153244 42 182 11.3 14.5 0.00 0.15 0.00 100 1017.9
20260904152744 40 261 3.2 14.5 0.00 0.15 0.00 100 1017.9
20260904152544 37 234 9.7 12.9 0.00 0.15 0.00 100 1017.8
20260904152244 37 234 9.7 12.9 0.00 0.15 0.00 100 1017.8
20260904152130 37 208 11.3 14.5 0.00 0.15 0.00 100 1017.9
20260904151744 37 208 11.3 14.5 0.00 0.15 0.00 100 1017.9
20260904151537 39 244 11.3 14.5 0.00 0.15 0.00 100 1017.8
20260904151244 39 244 11.3 14.5 0.00 0.15 0.00 100 1017.8
20260904151015 37 229 11.3 12.9 0.00 0.15 0.00 100 1017.7
20260904150744 37 229 11.3 12.9 0.00 0.15 0.00 100 1017.7
20260904150556 37 187 8.0 12.9 0.00 0.15 0.00 100 1017.7
20260904150244 37 187 8.0 12.9 0.00 0.15 0.00 100 1017.7
20260904150034 36 217 9.7 12.9 0.00 0.15 0.00 100 1017.6
20260904145744 36 217 9.7 12.9 0.00 0.15 0.00 100 1017.6
20260904145556 35 203 9.7 12.9 0.00 0.15 0.00 100 1017.4
20260904145503 35 203 9.7 12.9 0.00 0.15 0.00 100 1017.4
20260904145244 35 203 9.7 12.9 0.00 0.15 0.00 100 1017.4
20260904144744 36 202 8.0 14.5 0.00 0.15 0.00 100 1017.5
20260904144559 35 232 4.8 16.1 0.00 0.15 0.00 100 1017.5
20260904144244 35 232 4.8 16.1 0.00 0.15 0.00 100 1017.5
20260904143956 35 213 12.9 14.5 0.00 0.15 0.00 100 1017.5
20260904143744 35 213 12.9 14.5 0.00 0.15 0.00 100 1017.5
20260904143244 35 210 9.7 12.9 0.00 0.15 0.00 100 1017.5
20260904143030 35 168 11.3 14.5 0.00 0.15 0.00 100 1017.5
20260904142744 35 168 11.3 14.5 0.00 0.15 0.00 100 1017.5
20260904142611 36 125 6.4 12.9 0.00 0.15 0.00 100 1017.4
20260904142244 36 125 6.4 12.9 0.00 0.15 0.00 100 1017.4
20260904142000 36 144 3.2 9.7 0.00 0.15 0.00 100 1017.3
20260904141744 36 144 3.2 9.7 0.00 0.15 0.00 100 1017.3
20260904141615 37 216 4.8 11.3 0.00 0.15 0.00 100 1017.3
20260904141244 37 216 4.8 11.3 0.00 0.15 0.00 100 1017.3
20260904141122 37 163 3.2 11.3 0.00 0.15 0.00 100 1017.4
20260904140744 37 163 3.2 11.3 0.00 0.15 0.00 100 1017.4
20260904140244 37 196 8.0 11.3 0.00 0.15 0.00 100 1017.3
20260904135918 37 189 8.0 14.5 0.00 0.15 0.00 100 1017.4
20260904135744 37 189 8.0 14.5 0.00 0.15 0.00 100 1017.4
20260904135446 37 233 9.7 11.3 0.00 0.15 0.00 100 1017.3
20260904135244 37 233 9.7 11.3 0.00 0.15 0.00 100 1017.3
20260904135000 37 201 8.0 9.7 0.00 0.15 0.00 100 1017.2
20260904134744 37 201 8.0 9.7 0.00 0.15 0.00 100 1017.2
20260904134244 37 222 6.4 9.7 0.00 0.15 0.00 100 1017.1
20260904134007 37 118 1.6 11.3 0.00 0.15 0.00 100 1017.1
20260904133744 37 118 1.6 11.3 0.00 0.15 0.00 100 1017.1
20260904133613 37 187 4.8 8.0 0.00 0.15 0.00 100 1017.2
20260904133244 37 187 4.8 8.0 0.00 0.15 0.00 100 1017.2
20260904132744 36 253 3.2 12.9 0.00 0.15 0.00 100 1017.2
20260904132244 36 174 6.4 11.3 0.00 0.15 0.00 100 1017.1
20260904131856 35 191 4.8 9.7 0.00 0.15 0.00 100 1017.0
20260904131744 35 191 4.8 9.7 0.00 0.15 0.00 100 1017.0
20260904131359 35 246 3.2 9.7 0.00 0.15 0.00 100 1016.9
20260904131244 35 246 3.2 9.7 0.00 0.15 0.00 100 1016.9
20260904130744 35 147 0.0 8.0 0.00 0.15 0.00 100 1016.9
20260904130244 33 156 4.8 11.3 0.00 0.15 0.00 100 1016.9
20260904125744 33 167 4.8 16.1 0.00 0.15 0.00 100 1016.9
20260904125244 32 188 6.4 8.0 0.00 0.15 0.00 100 1016.8
20260904124744 32 195 1.6 8.0 0.00 0.15 0.00 100 1016.8
20260904124522 30 172 4.8 9.7 0.00 0.15 0.00 100 1016.8
20260904124244 30 172 4.8 9.7 0.00 0.15 0.00 100 1016.8
20260904123925 28 213 8.0 8.0 0.00 0.15 0.00 100 1016.7
20260904123744 28 213 8.0 8.0 0.00 0.15 0.00 100 1016.7
20260904123414 27 174 4.8 4.8 0.00 0.15 0.00 100 1016.6
20260904123244 27 174 4.8 4.8 0.00 0.15 0.00 100 1016.6
20260904122922 26 191 3.2 8.0 0.00 0.15 0.00 100 1016.6
20260904122744 26 191 3.2 8.0 0.00 0.15 0.00 100 1016.6
20260904122244 26 135 6.4 6.4 0.00 0.15 0.00 100 1016.6
20260904121932 26 135 0.0 4.8 0.00 0.15 0.00 100 1016.7
20260904121744 26 135 0.0 4.8 0.00 0.15 0.00 100 1016.7
20260904121244 26 140 3.2 4.8 0.00 0.15 0.00 100 1016.7
20260904120744 26 136 0.0 0.0 0.00 0.15 0.00 100 1016.6
20260904120444 25 136 0.0 1.6 0.00 0.18 0.00 100 1016.5
20260904120244 25 136 0.0 1.6 0.00 0.18 0.00 100 1016.5
20260904115744 25 116 0.0 0.0 0.00 0.18 0.00 100 1016.4
20260904115245 25 116 0.0 0.0 0.00 0.18 0.00 100 1016.4
20260904115023 25 116 0.0 0.0 0.00 0.18 0.00 100 1016.3
20260904114745 25 116 0.0 0.0 0.00 0.18 0.00 100 1016.3
20260904114245 25 116 0.0 0.0 0.00 0.18 0.00 100 1016.4
20260904114013 25 116 0.0 0.0 0.00 0.18 0.00 100 1016.3
20260904113745 25 116 0.0 0.0 0.00 0.18 0.00 100 1016.3
20260904113415 25 116 0.0 0.0 0.00 0.18 0.00 100 1016.3
20260904113245 25 116 0.0 0.0 0.00 0.18 0.00 100 1016.3
20260904112953 25 116 0.0 0.0 0.00 0.18 0.00 100 1016.3
20260904112745 25 116 0.0 0.0 0.00 0.18 0.00 100 1016.3
20260904112245 24 116 0.0 0.0 0.00 0.18 0.00 100 1016.2
20260904111745 24 116 0.0 0.0 0.00 0.18 0.00 100 1016.1
20260904111245 24 116 0.0 0.0 0.00 0.18 0.00 100 1016.2
20260904110745 24 116 0.0 1.6 0.00 0.18 0.00 100 1016.1
20260904110245 24 130 0.0 0.0 0.00 0.18 0.00 100 1016.0
20260904105745 24 130 0.0 0.0 0.00 0.18 0.00 100 1016.0
20260904105245 24 130 0.0 0.0 0.00 0.18 0.00 100 1016.0
20260904104745 24 130 0.0 0.0 0.00 0.18 0.00 100 1016.0
20260904104245 24 130 0.0 0.0 0.00 0.18 0.00 100 1016.0
20260904103745 24 130 0.0 0.0 0.00 0.18 0.00 100 1015.9
20260904103245 24 130 0.0 0.0 0.00 0.18 0.00 100 1016.0
20260904102745 24 130 0.0 0.0 0.00 0.18 0.00 100 1015.9
20260904102505 24 130 0.0 1.6 0.00 0.18 0.00 100 1015.9
20260904102245 24 130 0.0 1.6 0.00 0.18 0.00 100 1015.9
20260904101745 24 143 0.0 0.0 0.00 0.18 0.00 100 1015.8
20260904101346 24 143 0.0 0.0 0.00 0.18 0.00 100 1015.7
20260904101245 24 143 0.0 0.0 0.00 0.18 0.00 100 1015.7
20260904100943 24 143 0.0 0.0 0.00 0.18 0.00 100 1015.7
20260904100745 24 143 0.0 0.0 0.00 0.18 0.00 100 1015.7
20260904100443 24 143 0.0 0.0 0.00 0.18 0.00 100 1015.5
20260904100245 24 143 0.0 0.0 0.00 0.18 0.00 100 1015.5
20260904100031 24 143 0.0 0.0 0.00 0.18 0.00 100 1015.5
20260904095745 24 143 0.0 0.0 0.00 0.18 0.00 100 1015.5
20260904095521 24 143 0.0 0.0 0.00 0.18 0.00 100 1015.4
20260904095245 24 143 0.0 0.0 0.00 0.18 0.00 100 1015.4
20260904094745 24 143 0.0 0.0 0.00 0.18 0.00 100 1015.2
20260904094245 24 143 0.0 0.0 0.00 0.18 0.00 100 1015.3
20260904093745 24 143 0.0 0.0 0.00 0.18 0.00 100 1015.3
20260904093245 24 143 0.0 0.0 0.00 0.18 0.00 100 1015.2
20260904092955 24 143 0.0 0.0 0.00 0.18 0.00 100 1015.1
20260904092745 24 143 0.0 0.0 0.00 0.18 0.00 100 1015.1
20260904092545 24 143 0.0 0.0 0.00 0.18 0.00 100 1015.2
20260904092245 24 143 0.0 0.0 0.00 0.18 0.00 100 1015.2
20260904091745 24 143 0.0 0.0 0.00 0.18 0.00 100 1015.2
20260904091245 24 143 0.0 0.0 0.00 0.18 0.00 100 1015.2
20260904090942 24 143 0.0 0.0 0.00 0.18 0.00 100 1015.2
20260904090745 24 143 0.0 0.0 0.00 0.18 0.00 100 1015.2
20260904090525 24 143 0.0 0.0 0.00 0.18 0.00 100 1015.2
20260904090245 24 143 0.0 0.0 0.00 0.18 0.00 100 1015.2
20260904085745 24 143 0.0 0.0 0.00 0.18 0.00 100 1015.1
20260904085245 24 143 0.0 0.0 0.00 0.18 0.00 100 1015.1
20260904084745 25 143 0.0 0.0 0.00 0.18 0.00 100 1015.1
20260904084245 24 143 0.0 0.0 0.00 0.18 0.00 100 1015.2
20260904083745 24 143 0.0 0.0 0.00 0.18 0.00 100 1015.2
20260904083245 25 143 0.0 0.0 0.00 0.18 0.00 100 1015.3
20260904082745 25 143 0.0 0.0 0.00 0.18 0.00 100 1015.2
20260904082245 24 143 0.0 0.0 0.00 0.18 0.00 100 1015.4
20260904081954 24 143 0.0 0.0 0.00 0.18 0.00 100 1015.3
20260904081745 24 143 0.0 0.0 0.00 0.18 0.00 100 1015.3
20260904081245 25 143 0.0 0.0 0.00 0.18 0.00 100 1015.3
20260904080745 25 143 0.0 0.0 0.00 0.18 0.00 100 1015.2
20260904080534 25 143 0.0 0.0 0.00 0.18 0.00 100 1015.3
20260904080246 25 143 0.0 0.0 0.00 0.18 0.00 100 1015.3
20260904080021 25 143 0.0 0.0 0.00 0.18 0.00 100 1015.3
20260904075746 25 143 0.0 0.0 0.00 0.18 0.00 100 1015.3
20260904075245 25 143 0.0 0.0 0.00 0.18 0.00 100 1015.3
20260904075145 25 143 0.0 0.0 0.00 0.18 0.00 100 1015.2
20260904074746 25 143 0.0 0.0 0.00 0.18 0.00 100 1015.2
20260904074532 25 143 0.0 0.0 0.00 0.18 0.00 100 1015.2
20260904074246 25 143 0.0 0.0 0.00 0.18 0.00 100 1015.2
20260904074008 25 143 0.0 0.0 0.00 0.18 0.00 100 1015.1
20260904073746 25 143 0.0 0.0 0.00 0.18 0.00 100 1015.1
20260904073449 25 143 0.0 0.0 0.00 0.18 0.00 100 1015.1
20260904073246 25 143 0.0 0.0 0.00 0.18 0.00 100 1015.1
20260904073032 25 143 0.0 0.0 0.00 0.18 0.00 100 1015.2
20260904072746 25 143 0.0 0.0 0.00 0.18 0.00 100 1015.2
20260904072550 25 143 0.0 0.0 0.00 0.18 0.00 100 1015.2
20260904072246 25 143 0.0 0.0 0.00 0.18 0.00 100 1015.2
20260904072016 25 143 0.0 0.0 0.00 0.18 0.00 100 1015.1
20260904071746 25 143 0.0 0.0 0.00 0.18 0.00 100 1015.1
20260904071246 25 143 0.0 0.0 0.00 0.18 0.00 100 1015.1
20260904071001 25 143 0.0 0.0 0.00 0.18 0.00 100 1015.2
20260904070746 25 143 0.0 0.0 0.00 0.18 0.00 100 1015.2
20260904070531 25 143 0.0 0.0 0.00 0.18 0.00 100 1015.3
20260904070246 25 143 0.0 0.0 0.00 0.18 0.00 100 1015.3
20260904065953 25 143 0.0 0.0 0.00 0.18 0.00 100 1015.3
20260904065746 25 143 0.0 0.0 0.00 0.18 0.00 100 1015.3
20260904065615 25 143 0.0 0.0 0.00 0.18 0.00 100 1015.4
20260904065246 25 143 0.0 0.0 0.00 0.18 0.00 100 1015.4
20260904065031 25 143 0.0 0.0 0.00 0.18 0.00 100 1015.4
20260904064746 25 143 0.0 0.0 0.00 0.18 0.00 100 1015.4
20260904064445 25 143 0.0 0.0 0.00 0.18 0.00 100 1015.2
20260904064246 25 143 0.0 0.0 0.00 0.18 0.00 100 1015.2
20260904063746 25 143 0.0 0.0 0.00 0.18 0.00 100 1015.3
20260904063246 25 143 0.0 0.0 0.00 0.18 0.00 100 1015.4
20260904063024 25 143 0.0 0.0 0.00 0.18 0.00 100 1015.5
20260904062746 25 143 0.0 0.0 0.00 0.18 0.00 100 1015.5
20260904062613 25 143 0.0 0.0 0.00 0.18 0.00 100 1015.5
20260904062246 25 143 0.0 0.0 0.00 0.18 0.00 100 1015.5
20260904061746 25 143 0.0 0.0 0.00 0.18 0.00 100 1015.4
20260904061246 25 143 0.0 0.0 0.00 0.18 0.00 100 1015.5
20260904061032 25 143 0.0 0.0 0.00 0.18 0.00 100 1015.6
20260904060746 25 143 0.0 0.0 0.00 0.18 0.00 100 1015.6
20260904060246 25 143 0.0 0.0 0.00 0.18 0.00 100 1015.6
20260904055746 25 143 0.0 0.0 0.00 0.18 0.00 100 1015.6
20260904055246 25 143 0.0 0.0 0.00 0.18 0.00 100 1015.7
20260904054746 25 143 0.0 0.0 0.00 0.18 0.00 100 1015.6
20260904054246 25 143 0.0 1.6 0.00 0.18 0.00 100 1015.7
20260904053746 25 144 0.0 3.2 0.00 0.18 0.00 100 1015.8
20260904053246 25 105 0.0 0.0 0.00 0.18 0.00 100 1015.8
20260904053108 25 105 0.0 1.6 0.00 0.18 0.00 100 1015.8
20260904052746 25 105 0.0 1.6 0.00 0.18 0.00 100 1015.8
20260904052246 25 105 0.0 1.6 0.00 0.18 0.00 100 1015.9
20260904052022 25 163 0.0 0.0 0.00 0.18 0.00 100 1016.0
20260904051746 25 163 0.0 0.0 0.00 0.18 0.00 100 1016.0
20260904051511 25 163 0.0 0.0 0.00 0.18 0.00 100 1016.1
20260904051246 25 163 0.0 0.0 0.00 0.18 0.00 100 1016.1
20260904051101 25 163 0.0 0.0 0.00 0.18 0.00 100 1016.1
20260904050746 25 163 0.0 0.0 0.00 0.18 0.00 100 1016.1
20260904050530 25 163 0.0 0.0 0.00 0.18 0.00 100 1016.2
20260904050246 25 163 0.0 0.0 0.00 0.18 0.00 100 1016.2
20260904045746 25 163 0.0 0.0 0.00 0.18 0.00 100 1016.2
20260904045246 25 163 0.0 0.0 0.00 0.18 0.18 100 1016.1
20260904044746 25 163 0.0 0.0 0.00 0.18 0.18 100 1016.1
20260904044556 25 163 0.0 0.0 0.00 0.18 0.18 100 1016.2
20260904044246 25 163 0.0 0.0 0.00 0.18 0.18 100 1016.2
20260904043746 25 163 0.0 0.0 0.00 0.18 0.18 100 1016.2
20260904043532 25 163 0.0 0.0 0.00 0.18 0.18 100 1016.3
20260904043246 25 163 0.0 0.0 0.00 0.18 0.18 100 1016.3
20260904043036 25 163 0.0 0.0 0.00 0.18 0.18 100 1016.3
20260904042746 25 163 0.0 0.0 0.00 0.18 0.18 100 1016.3
20260904042246 25 163 0.0 0.0 0.00 0.18 0.18 100 1016.4
20260904041746 25 163 0.0 0.0 0.00 0.18 0.18 100 1016.4
20260904041246 25 163 0.0 0.0 0.00 0.18 0.18 100 1016.3
20260904040746 25 163 0.0 0.0 0.00 0.18 0.18 100 1016.3
20260904040246 25 163 0.0 0.0 0.00 0.20 0.18 100 1016.3
20260904040002 25 163 0.0 0.0 0.00 0.20 0.18 100 1016.3
20260904035746 25 163 0.0 0.0 0.00 0.20 0.18 100 1016.3
20260904035247 25 163 0.0 0.0 0.00 0.20 0.18 100 1016.3
20260904035005 25 163 0.0 0.0 0.00 0.20 0.18 100 1016.3
20260904034747 25 163 0.0 0.0 0.00 0.20 0.18 100 1016.3
20260904034555 25 163 0.0 0.0 0.00 0.20 0.18 100 1016.4
20260904034247 25 163 0.0 0.0 0.00 0.20 0.18 100 1016.4
20260904033747 25 163 0.0 0.0 0.00 0.20 0.18 100 1016.4
20260904033247 25 163 0.0 0.0 0.00 0.20 0.18 100 1016.4
20260904033002 25 163 0.0 0.0 0.00 0.20 0.18 100 1016.4
20260904032747 25 163 0.0 0.0 0.00 0.20 0.18 100 1016.4
20260904032247 25 163 0.0 0.0 0.00 0.20 0.18 100 1016.3
20260904032012 25 163 0.0 0.0 0.00 0.20 0.18 100 1016.3
20260904031747 25 163 0.0 0.0 0.00 0.20 0.18 100 1016.3
20260904031456 25 163 0.0 0.0 0.00 0.20 0.18 100 1016.3
20260904031247 25 163 0.0 0.0 0.00 0.20 0.18 100 1016.3
20260904030747 25 163 0.0 0.0 0.00 0.20 0.18 100 1016.2
20260904030247 25 163 0.0 0.0 0.00 0.28 0.18 100 1016.3
20260904025747 25 163 0.0 0.0 0.00 0.28 0.18 100 1016.2
20260904025425 25 163 0.0 3.2 0.00 0.28 0.18 100 1016.1
20260904025247 25 163 0.0 3.2 0.00 0.28 0.18 100 1016.1
20260904025034 25 163 0.0 4.8 0.00 0.28 0.18 100 1016.0
20260904024747 25 163 0.0 4.8 0.00 0.28 0.18 100 1016.0
20260904024247 25 118 0.0 4.8 0.00 0.28 0.18 100 1016.0
20260904023747 25 150 3.2 6.4 0.00 0.28 0.18 100 1016.0
20260904023247 25 177 0.0 0.0 0.00 0.28 0.18 100 1016.0
20260904022747 25 177 0.0 0.0 0.00 0.28 0.18 100 1016.0
20260904022247 25 177 0.0 0.0 0.00 0.28 0.18 100 1016.1
20260904021747 25 177 0.0 4.8 0.00 0.28 0.18 100 1016.1
20260904021247 25 182 0.0 6.4 0.00 0.28 0.18 100 1016.3
20260904021052 25 150 3.2 6.4 0.00 0.28 0.18 100 1016.4
20260904020747 25 150 3.2 6.4 0.00 0.28 0.18 100 1016.4
20260904020247 25 171 0.0 9.7 0.00 0.30 0.18 100 1016.4
20260904015747 25 102 6.4 14.5 0.00 0.30 0.18 100 1016.3
20260904015612 25 126 3.2 12.9 0.00 0.30 0.18 100 1016.2
20260904015247 25 126 3.2 12.9 0.00 0.30 0.18 100 1016.2
20260904014958 25 150 6.4 14.5 0.00 0.30 0.18 100 1016.3
20260904014747 25 150 6.4 14.5 0.00 0.30 0.18 100 1016.3
20260904014504 26 123 0.0 9.7 0.00 0.30 0.18 100 1016.3
20260904014247 26 123 0.0 9.7 0.00 0.30 0.18 100 1016.3
20260904013747 26 133 4.8 12.9 0.00 0.30 0.18 100 1016.3
20260904013505 26 113 4.8 12.9 0.00 0.30 0.18 100 1016.2
20260904013247 26 113 4.8 12.9 0.00 0.30 0.18 100 1016.2
20260904013031 26 98 8.0 11.3 0.00 0.30 0.18 100 1016.1
20260904012747 26 98 8.0 11.3 0.00 0.30 0.18 100 1016.1
20260904012247 26 106 9.7 9.7 0.00 0.30 0.18 100 1016.2
20260904012128 26 80 4.8 8.0 0.00 0.30 0.18 100 1016.2
20260904011747 26 80 4.8 8.0 0.00 0.30 0.18 100 1016.2
20260904011247 26 129 3.2 11.3 0.00 0.30 0.18 100 1016.1
20260904010747 26 92 4.8 8.0 0.00 0.30 0.18 100 1016.2
20260904010247 26 136 8.0 11.3 0.00 0.30 0.18 100 1016.1
20260904005747 26 126 4.8 9.7 0.00 0.30 0.18 100 1016.0
20260904005247 26 95 4.8 4.8 0.00 0.30 0.18 100 1015.9
20260904005013 26 59 0.0 0.0 0.00 0.30 0.18 100 1015.8
20260904004747 26 59 0.0 0.0 0.00 0.30 0.18 100 1015.8
20260904004247 26 59 0.0 0.0 0.00 0.30 0.18 100 1015.8
20260904003747 26 59 0.0 4.8 0.00 0.30 0.18 100 1015.6
20260904003247 26 53 0.0 6.4 0.00 0.30 0.18 100 1015.4
20260904002820 26 108 1.6 8.0 0.00 0.30 0.18 100 1015.5
20260904002747 26 108 1.6 8.0 0.00 0.30 0.18 100 1015.5
20260904002247 26 99 4.8 9.7 0.00 0.30 0.18 100 1015.6
20260904002053 26 70 3.2 8.0 0.00 0.30 0.18 100 1015.5
20260904001747 26 70 3.2 8.0 0.00 0.30 0.18 100 1015.5
20260904001531 26 75 3.2 6.4 0.00 0.30 0.18 100 1015.5
20260904001247 26 75 3.2 6.4 0.00 0.30 0.18 100 1015.5
20260904000747 26 80 6.4 6.4 0.00 0.30 0.18 100 1015.5
20260904000422 26 75 3.2 4.8 0.00 0.33 0.18 100 1015.4
20260904000248 26 75 3.2 4.8 0.00 0.33 0.18 100 1015.4
20260903235747 26 67 3.2 6.4 0.00 0.33 0.18 100 1015.5
20260903235248 26 102 3.2 4.8 0.00 0.33 0.18 100 1015.4
20260903234748 26 108 1.6 4.8 0.00 0.33 0.18 100 1015.5
20260903234248 27 153 1.6 1.6 0.00 0.33 0.18 100 1015.4
20260903233748 27 147 0.0 1.6 0.00 0.33 0.18 100 1015.4
20260903233248 27 189 0.0 6.4 0.00 0.33 0.18 100 1015.4
20260903232748 27 168 4.8 6.4 0.00 0.33 0.18 100 1015.3
20260903232248 26 140 1.6 6.4 0.00 0.33 0.18 100 1015.3
20260903232058 27 170 3.2 12.9 0.00 0.33 0.18 100 1015.3
20260903231748 27 170 3.2 12.9 0.00 0.33 0.18 100 1015.3
20260903231248 27 243 8.0 11.3 0.00 0.33 0.18 100 1015.5
20260903231034 27 236 6.4 9.7 0.00 0.33 0.18 100 1015.5
20260903230748 27 236 6.4 9.7 0.00 0.33 0.18 100 1015.5
20260903230248 27 168 0.0 0.0 0.00 0.33 0.18 100 1015.3
20260903230020 27 168 0.0 0.0 0.00 0.36 0.18 100 1015.4
20260903225748 27 168 0.0 0.0 0.00 0.36 0.18 100 1015.4
20260903225248 27 175 0.0 4.8 0.00 0.36 0.18 100 1015.4
20260903224748 27 154 0.0 0.0 0.00 0.36 0.18 100 1015.4
20260903224248 27 154 0.0 3.2 0.00 0.36 0.18 100 1015.2
20260903223748 27 195 3.2 3.2 0.00 0.36 0.18 100 1015.2
20260903223527 27 168 1.6 4.8 0.00 0.36 0.18 100 1015.1
20260903223248 27 168 1.6 4.8 0.00 0.36 0.18 100 1015.1
20260903222955 28 206 4.8 6.4 0.00 0.36 0.18 100 1015.1
20260903222748 28 206 4.8 6.4 0.00 0.36 0.18 100 1015.1
20260903222248 27 225 6.4 9.7 0.00 0.36 0.18 100 1014.9
20260903221748 28 213 4.8 8.0 0.00 0.36 0.18 100 1014.9
20260903221506 28 241 3.2 11.3 0.00 0.36 0.18 100 1014.7
20260903221248 28 241 3.2 11.3 0.00 0.36 0.18 100 1014.7
20260903220748 28 161 6.4 6.4 0.00 0.36 0.18 100 1014.6
20260903220248 28 237 1.6 4.8 0.00 0.36 0.18 100 1014.4
20260903215748 28 181 3.2 4.8 0.00 0.36 0.18 100 1014.5
20260903215248 28 108 0.0 3.2 0.00 0.36 0.18 100 1014.4
20260903214948 28 88 0.0 6.4 0.00 0.36 0.18 100 1014.4
20260903214748 28 88 0.0 6.4 0.00 0.36 0.18 100 1014.4
20260903214533 28 137 3.2 4.8 0.00 0.36 0.18 100 1014.4
20260903214248 28 137 3.2 4.8 0.00 0.36 0.18 100 1014.4
20260903213748 28 122 3.2 4.8 0.00 0.36 0.18 100 1014.3
20260903213539 28 163 4.8 4.8 0.00 0.36 0.18 100 1014.2
20260903213248 28 163 4.8 4.8 0.00 0.36 0.18 100 1014.2
20260903213047 28 94 1.6 4.8 0.00 0.36 0.18 100 1014.1
20260903212748 28 94 1.6 4.8 0.00 0.36 0.18 100 1014.1
20260903212626 28 99 4.8 4.8 0.00 0.36 0.18 100 1014.1